#�ϑ�����,���ϕ���,���ϕ���,�ő啗��,�ő啗����������,�ő�u�ԕ���,�ő�u�ԕ�����������
#(�N����),(m/s)   ,(16����),(m/s)   ,(16����)        ,(m/s)       ,(16����)            
2015/11/24 0:01,0.4,7,0.4,1,0.9,5
2015/11/24 0:02,0.5,6,0.5,6,0.8,3
2015/11/24 0:03,0.5,6,0.5,6,0.5,5
2015/11/24 0:04,0.5,6,0.5,6,0.6,4
2015/11/24 0:05,0.5,5,0.5,6,0.3,2
2015/11/24 0:06,0.5,5,0.5,6,0.4,4
2015/11/24 0:07,0.5,4,0.5,6,0.5,4
2015/11/24 0:08,0.4,4,0.4,6,0.5,5
2015/11/24 0:09,0.4,4,0.4,6,0.8,6
2015/11/24 0:10,0.4,4,0.4,6,0.8,5
2015/11/24 0:11,0.4,5,0.4,6,0.9,6
2015/11/24 0:12,0.4,5,0.4,6,1,6
2015/11/24 0:13,0.5,5,0.5,6,1.4,6
2015/11/24 0:14,0.5,5,0.5,6,1.4,6
2015/11/24 0:15,0.5,6,0.6,6,0.8,8
2015/11/24 0:16,0.6,6,0.6,6,1.6,8
2015/11/24 0:17,0.7,7,0.7,7,1.6,8
2015/11/24 0:18,0.8,7,0.8,7,3,8
2015/11/24 0:19,0.9,7,0.9,7,2.2,8
2015/11/24 0:20,1,7,1,7,2,8
2015/11/24 0:21,1.2,8,1.2,8,2.6,8
2015/11/24 0:22,1.3,8,1.3,8,2.5,8
2015/11/24 0:23,1.2,8,1.3,8,1.9,7
2015/11/24 0:24,1.2,8,1.2,8,1,8
2015/11/24 0:25,1.3,8,1.3,8,1.9,8
2015/11/24 0:26,1.3,8,1.3,8,1.6,7
2015/11/24 0:27,1.3,8,1.3,8,1.4,7
2015/11/24 0:28,1.1,8,1.3,8,1.5,7
2015/11/24 0:29,1.1,8,1.1,8,1.6,6
2015/11/24 0:30,1,7,1.1,8,1.8,6
2015/11/24 0:31,1,7,1,8,2,6
2015/11/24 0:32,0.9,7,1,8,1.8,6
2015/11/24 0:33,0.8,7,0.9,8,0.5,6
2015/11/24 0:34,0.8,6,0.8,8,0.1,1
2015/11/24 0:35,0.7,6,0.8,8,0,1
2015/11/24 0:36,0.6,5,0.6,8,0,1
2015/11/24 0:37,0.5,4,0.5,8,0.1,1
2015/11/24 0:38,0.4,4,0.5,8,0.1,1
2015/11/24 0:39,0.3,3,0.4,8,0.3,1
2015/11/24 0:40,0.3,3,0.3,7,0.4,1
2015/11/24 0:41,0.2,2,0.3,7,0.5,1
2015/11/24 0:42,0.1,2,0.1,7,0.3,1
2015/11/24 0:43,0,1,0.1,7,0,1
2015/11/24 0:44,0,1,0,6,0,1
2015/11/24 0:45,0.1,2,0.1,6,0.5,8
2015/11/24 0:46,0.1,2,0.1,5,0.1,5
2015/11/24 0:47,0.1,2,0.1,4,0.1,3
2015/11/24 0:48,0.1,2,0.1,4,0.6,6
2015/11/24 0:49,0.1,2,0.1,3,0.6,5
2015/11/24 0:50,0.1,3,0.1,3,0.8,6
2015/11/24 0:51,0.2,4,0.2,3,0.9,6
2015/11/24 0:52,0.2,4,0.2,3,0.9,5
2015/11/24 0:53,0.3,5,0.3,4,1.1,5
2015/11/24 0:54,0.4,5,0.4,5,1.3,5
2015/11/24 0:55,0.5,5,0.5,5,1.4,6
2015/11/24 0:56,0.5,6,0.5,5,0.5,8
2015/11/24 0:57,0.5,6,0.5,5,0.1,5
2015/11/24 0:58,0.4,6,0.5,5,0.1,5
2015/11/24 0:59,0.5,6,0.5,5,0.9,8
2015/11/24 1:00,0.4,7,0.4,5,0.1,9
2015/11/24 1:01,0.4,7,0.4,5,0.1,5
2015/11/24 1:02,0.3,7,0.3,5,0.3,7
2015/11/24 1:03,0.2,8,0.3,5,0.5,9
2015/11/24 1:04,0.2,8,0.2,5,0.3,8
2015/11/24 1:05,0.1,8,0.1,5,1,10
2015/11/24 1:06,0.1,8,0.1,6,0.5,10
2015/11/24 1:07,0.2,9,0.2,6,1.4,9
2015/11/24 1:08,0.3,9,0.3,6,1.4,10
2015/11/24 1:09,0.3,9,0.3,7,1.1,10
2015/11/24 1:10,0.4,10,0.4,7,0.9,10
2015/11/24 1:11,0.4,10,0.4,9,1.1,10
2015/11/24 1:12,0.5,10,0.5,10,1,8
2015/11/24 1:13,0.5,10,0.5,10,0.8,7
2015/11/24 1:14,0.6,10,0.6,10,1,8
2015/11/24 1:15,0.6,9,0.6,10,0.9,8
2015/11/24 1:16,0.6,9,0.6,10,0.5,7
2015/11/24 1:17,0.5,8,0.6,10,0.6,7
2015/11/24 1:18,0.5,8,0.5,10,0.4,6
2015/11/24 1:19,0.4,8,0.5,10,0,6
2015/11/24 1:20,0.3,7,0.4,10,0.1,6
2015/11/24 1:21,0.3,7,0.3,10,0.4,2
2015/11/24 1:22,0.2,6,0.3,10,0,2
2015/11/24 1:23,0.2,6,0.2,10,0.1,2
2015/11/24 1:24,0.1,5,0.2,10,0.1,2
2015/11/24 1:25,0.1,4,0.1,9,0.6,2
2015/11/24 1:26,0.1,4,0.1,9,1.1,2
2015/11/24 1:27,0.2,3,0.2,8,1.6,1
2015/11/24 1:28,0.4,2,0.4,8,2,2
2015/11/24 1:29,0.4,2,0.4,8,1.6,16
2015/11/24 1:30,0.6,2,0.6,2,1.9,15
2015/11/24 1:31,0.7,1,0.7,1,2.7,16
2015/11/24 1:32,0.9,1,0.9,1,2.9,16
2015/11/24 1:33,1,1,1,1,1.6,2
2015/11/24 1:34,1.1,1,1.1,1,2,3
2015/11/24 1:35,1.1,1,1.1,1,1,15
2015/11/24 1:36,1,1,1.1,1,1,15
2015/11/24 1:37,1,1,1,1,0.8,6
2015/11/24 1:38,0.9,2,0.9,1,1.1,6
2015/11/24 1:39,0.8,2,0.9,1,1,6
2015/11/24 1:40,0.8,3,0.9,1,1.5,3
2015/11/24 1:41,0.7,3,0.8,1,1.4,3
2015/11/24 1:42,0.7,3,0.7,1,1.9,3
2015/11/24 1:43,0.7,4,0.7,1,1.9,3
2015/11/24 1:44,0.8,4,0.8,1,1.8,6
2015/11/24 1:45,0.9,4,0.9,1,1.8,7
2015/11/24 1:46,0.9,5,0.9,1,1.6,7
2015/11/24 1:47,1,5,1,5,2,6
2015/11/24 1:48,1.1,5,1.1,5,2.5,5
2015/11/24 1:49,1.3,5,1.3,5,2.9,5
2015/11/24 1:50,1.4,5,1.4,5,2.4,4
2015/11/24 1:51,1.5,5,1.5,5,2.7,4
2015/11/24 1:52,1.5,5,1.5,5,2.5,2
2015/11/24 1:53,1.5,5,1.5,5,2.1,1
2015/11/24 1:54,1.5,4,1.5,5,2.1,1
2015/11/24 1:55,1.4,4,1.5,5,1.6,2
2015/11/24 1:56,1.5,3,1.5,5,1.8,2
2015/11/24 1:57,1.5,3,1.5,5,2.2,2
2015/11/24 1:58,1.5,3,1.5,5,2.1,3
2015/11/24 1:59,1.3,2,1.4,5,1.9,3
2015/11/24 2:00,1.2,2,1.3,5,1.3,3
2015/11/24 2:01,1.1,2,1.2,5,0.8,4
2015/11/24 2:02,0.9,3,1.1,5,0.6,10
2015/11/24 2:03,0.9,2,0.9,5,0.8,13
2015/11/24 2:04,0.8,3,0.9,4,0.9,11
2015/11/24 2:05,0.9,3,0.9,4,1.4,11
2015/11/24 2:06,0.8,4,0.9,3,1.1,11
2015/11/24 2:07,0.7,11,0.8,3,0.8,9
2015/11/24 2:08,0.5,12,0.7,3,0.4,13
2015/11/24 2:09,0.4,12,0.5,2,0.1,4
2015/11/24 2:10,0.4,11,0.4,2,0.6,4
2015/11/24 2:11,0.5,11,0.5,2,0.9,5
2015/11/24 2:12,0.6,10,0.6,3,1.9,6
2015/11/24 2:13,0.7,9,0.7,2,1.9,6
2015/11/24 2:14,0.8,7,0.8,3,2,6
2015/11/24 2:15,0.8,6,0.8,3,1.9,6
2015/11/24 2:16,0.8,6,0.8,4,1.5,6
2015/11/24 2:17,0.9,5,0.9,6,1.8,5
2015/11/24 2:18,1,5,1,5,1,3
2015/11/24 2:19,1,5,1,5,0.4,1
2015/11/24 2:20,1,5,1,5,0.6,15
2015/11/24 2:21,0.9,5,1,5,0.8,16
2015/11/24 2:22,0.8,4,0.9,5,0.5,16
2015/11/24 2:23,0.7,3,0.8,5,0.5,15
2015/11/24 2:24,0.5,2,0.7,5,0.6,15
2015/11/24 2:25,0.4,1,0.5,5,0.8,15
2015/11/24 2:26,0.4,1,0.4,5,0.6,15
2015/11/24 2:27,0.3,16,0.4,5,0.4,16
2015/11/24 2:28,0.3,16,0.3,5,0.6,16
2015/11/24 2:29,0.3,16,0.3,5,0.5,15
2015/11/24 2:30,0.3,16,0.3,5,0.5,1
2015/11/24 2:31,0.2,16,0.3,4,0.4,1
2015/11/24 2:32,0.2,16,0.2,4,0.4,16
2015/11/24 2:33,0.2,16,0.2,3,0.1,8
2015/11/24 2:34,0.2,16,0.2,2,0.6,8
2015/11/24 2:35,0.2,16,0.2,1,0.1,5
2015/11/24 2:36,0.2,1,0.2,1,0.1,1
2015/11/24 2:37,0.1,16,0.2,16,0.1,13
2015/11/24 2:38,0.1,16,0.1,16,0.8,14
2015/11/24 2:39,0.2,16,0.2,16,1.1,13
2015/11/24 2:40,0.3,15,0.3,16,1.5,13
2015/11/24 2:41,0.4,14,0.4,15,1.5,12
2015/11/24 2:42,0.5,13,0.5,13,1.3,12
2015/11/24 2:43,0.5,13,0.5,13,0.8,12
2015/11/24 2:44,0.5,14,0.5,13,0.5,15
2015/11/24 2:45,0.6,14,0.6,14,1,16
2015/11/24 2:46,0.6,14,0.6,14,1.3,16
2015/11/24 2:47,0.7,14,0.7,14,1.5,16
2015/11/24 2:48,0.8,14,0.8,14,1.8,15
2015/11/24 2:49,0.8,14,0.8,14,1.6,15
2015/11/24 2:50,0.8,15,0.8,14,1.3,14
2015/11/24 2:51,0.8,15,0.8,14,1.3,14
2015/11/24 2:52,0.8,15,0.8,14,1.4,13
2015/11/24 2:53,0.9,15,0.9,15,1.1,14
2015/11/24 2:54,1,15,1,15,1.3,13
2015/11/24 2:55,1,14,1,15,1.3,13
2015/11/24 2:56,1,14,1,15,0.8,13
2015/11/24 2:57,1,14,1,15,1.1,16
2015/11/24 2:58,0.9,14,0.9,15,1,15
2015/11/24 2:59,0.9,14,0.9,15,1,15
2015/11/24 3:00,0.8,14,0.9,15,0.9,14
2015/11/24 3:01,0.8,14,0.8,15,1.3,11
2015/11/24 3:02,0.8,14,0.8,15,1.3,11
2015/11/24 3:03,0.7,14,0.8,15,0.6,9
2015/11/24 3:04,0.7,13,0.7,15,1.4,8
2015/11/24 3:05,0.7,12,0.7,14,1.1,8
2015/11/24 3:06,0.6,12,0.6,14,0.1,8
2015/11/24 3:07,0.5,11,0.6,14,0.4,10
2015/11/24 3:08,0.5,10,0.6,14,1.1,9
2015/11/24 3:09,0.5,10,0.5,14,1,9
2015/11/24 3:10,0.5,9,0.5,14,0.8,8
2015/11/24 3:11,0.4,9,0.5,14,0.4,8
2015/11/24 3:12,0.4,9,0.4,14,0.4,16
2015/11/24 3:13,0.4,9,0.4,14,0.8,16
2015/11/24 3:14,0.3,10,0.4,13,0.6,15
2015/11/24 3:15,0.3,10,0.3,12,0.8,14
2015/11/24 3:16,0.4,11,0.4,12,1.4,11
2015/11/24 3:17,0.6,11,0.6,11,2.4,10
2015/11/24 3:18,0.7,11,0.7,11,3.5,10
2015/11/24 3:19,0.9,11,0.9,11,3.1,9
2015/11/24 3:20,0.9,11,0.9,11,1.3,9
2015/11/24 3:21,0.9,12,0.9,11,1.3,13
2015/11/24 3:22,1.1,12,1.1,12,2.2,11
2015/11/24 3:23,1.1,11,1.1,12,1.6,12
2015/11/24 3:24,1.1,11,1.1,12,1,9
2015/11/24 3:25,1.1,10,1.1,12,0.6,5
2015/11/24 3:26,1,10,1.1,12,0.6,3
2015/11/24 3:27,0.9,10,1,12,1.1,7
2015/11/24 3:28,0.7,9,0.9,12,1.4,8
2015/11/24 3:29,0.6,10,0.7,12,1.3,14
2015/11/24 3:30,0.6,11,0.6,12,1.1,15
2015/11/24 3:31,0.6,11,0.6,12,1.4,12
2015/11/24 3:32,0.6,11,0.6,12,1.4,11
2015/11/24 3:33,0.6,11,0.6,11,1.1,12
2015/11/24 3:34,0.6,12,0.6,11,0.5,12
2015/11/24 3:35,0.5,12,0.6,10,0.1,12
2015/11/24 3:36,0.5,12,0.5,10,0.4,15
2015/11/24 3:37,0.5,13,0.5,10,0.3,16
2015/11/24 3:38,0.4,13,0.4,9,0.8,6
2015/11/24 3:39,0.4,13,0.4,10,1.3,5
2015/11/24 3:40,0.4,12,0.4,11,1.3,5
2015/11/24 3:41,0.4,11,0.5,11,0.8,5
2015/11/24 3:42,0.4,7,0.4,11,0.9,6
2015/11/24 3:43,0.3,6,0.4,12,0.1,8
2015/11/24 3:44,0.3,5,0.3,12,0.5,4
2015/11/24 3:45,0.4,4,0.4,12,0.6,1
2015/11/24 3:46,0.4,4,0.4,12,0.8,15
2015/11/24 3:47,0.4,5,0.4,11,0.1,6
2015/11/24 3:48,0.4,5,0.4,11,0,6
2015/11/24 3:49,0.3,6,0.4,11,0.1,9
2015/11/24 3:50,0.2,6,0.3,11,0,10
2015/11/24 3:51,0.1,7,0.2,11,0,10
2015/11/24 3:52,0.1,7,0.1,7,0.8,16
2015/11/24 3:53,0.1,7,0.1,5,0.5,16
2015/11/24 3:54,0.1,6,0.1,5,0.5,16
2015/11/24 3:55,0.1,6,0.1,4,0.6,2
2015/11/24 3:56,0.2,6,0.2,4,1.5,2
2015/11/24 3:57,0.3,4,0.3,5,1.4,3
2015/11/24 3:58,0.4,3,0.4,5,0.8,3
2015/11/24 3:59,0.4,3,0.4,3,0.6,5
2015/11/24 4:00,0.4,3,0.4,3,0.1,6
2015/11/24 4:01,0.4,3,0.4,3,0.1,7
2015/11/24 4:02,0.4,3,0.4,3,0,11
2015/11/24 4:03,0.4,3,0.4,3,0.5,5
2015/11/24 4:04,0.4,4,0.4,3,0.4,5
2015/11/24 4:05,0.4,5,0.4,3,1.1,5
2015/11/24 4:06,0.4,5,0.4,3,1.4,5
2015/11/24 4:07,0.4,5,0.4,3,1.8,3
2015/11/24 4:08,0.4,5,0.4,3,1.4,3
2015/11/24 4:09,0.4,5,0.4,3,0.8,3
2015/11/24 4:10,0.5,4,0.5,4,0.4,5
2015/11/24 4:11,0.5,4,0.5,4,0.5,5
2015/11/24 4:12,0.5,5,0.5,4,0.4,6
2015/11/24 4:13,0.5,4,0.5,4,0.5,1
2015/11/24 4:14,0.5,4,0.5,4,0.6,3
2015/11/24 4:15,0.5,4,0.6,4,0.5,2
2015/11/24 4:16,0.4,4,0.5,4,0.6,2
2015/11/24 4:17,0.4,4,0.4,4,1.1,3
2015/11/24 4:18,0.4,3,0.4,4,1.3,3
2015/11/24 4:19,0.4,3,0.4,4,1,4
2015/11/24 4:20,0.5,3,0.5,4,1.1,4
2015/11/24 4:21,0.4,3,0.5,4,0.5,3
2015/11/24 4:22,0.4,3,0.4,4,0,4
2015/11/24 4:23,0.4,3,0.4,4,0,7
2015/11/24 4:24,0.4,4,0.4,4,0,7
2015/11/24 4:25,0.4,4,0.4,4,0.5,10
2015/11/24 4:26,0.4,5,0.4,3,1.5,8
2015/11/24 4:27,0.5,6,0.5,3,2,9
2015/11/24 4:28,0.5,6,0.5,3,2,8
2015/11/24 4:29,0.5,7,0.5,3,1.1,9
2015/11/24 4:30,0.5,7,0.5,3,1.1,9
2015/11/24 4:31,0.5,8,0.5,5,0.6,9
2015/11/24 4:32,0.5,8,0.5,5,0.8,8
2015/11/24 4:33,0.6,8,0.6,8,0.6,8
2015/11/24 4:34,0.6,8,0.6,8,0.3,8
2015/11/24 4:35,0.6,9,0.6,8,0.1,13
2015/11/24 4:36,0.5,9,0.6,8,0.5,10
2015/11/24 4:37,0.3,10,0.5,8,0.3,10
2015/11/24 4:38,0.2,10,0.3,8,0,12
2015/11/24 4:39,0.2,10,0.2,8,0,11
2015/11/24 4:40,0.2,11,0.2,8,0,15
2015/11/24 4:41,0.1,11,0.2,8,0.1,16
2015/11/24 4:42,0.1,13,0.1,8,1,1
2015/11/24 4:43,0.2,14,0.2,8,1.4,1
2015/11/24 4:44,0.3,15,0.3,8,2,1
2015/11/24 4:45,0.4,15,0.4,9,1.3,1
2015/11/24 4:46,0.5,16,0.5,9,1.8,16
2015/11/24 4:47,0.6,16,0.6,16,1.9,16
2015/11/24 4:48,0.6,1,0.6,16,0.5,1
2015/11/24 4:49,0.7,1,0.7,1,1.6,1
2015/11/24 4:50,0.8,1,0.8,1,1.6,1
2015/11/24 4:51,0.8,1,0.8,1,0.4,16
2015/11/24 4:52,0.7,1,0.8,1,0.1,11
2015/11/24 4:53,0.7,1,0.7,1,0.6,4
2015/11/24 4:54,0.6,1,0.6,1,1.4,1
2015/11/24 4:55,0.6,1,0.6,1,1.5,1
2015/11/24 4:56,0.6,1,0.6,1,0.9,2
2015/11/24 4:57,0.5,2,0.6,1,0.6,3
2015/11/24 4:58,0.5,2,0.5,1,1.1,8
2015/11/24 4:59,0.4,3,0.5,1,0.6,9
2015/11/24 5:00,0.4,6,0.4,1,0.9,9
2015/11/24 5:01,0.6,6,0.6,1,4.5,8
2015/11/24 5:02,0.7,5,0.7,1,1.5,6
2015/11/24 5:03,0.8,6,0.8,6,2.1,8
2015/11/24 5:04,0.9,7,0.9,6,3.3,8
2015/11/24 5:05,0.8,8,0.9,6,1,11
2015/11/24 5:06,1,8,1,8,3.5,8
2015/11/24 5:07,1.1,9,1.1,8,2.9,8
2015/11/24 5:08,1.1,8,1.1,8,1.9,9
2015/11/24 5:09,1.4,8,1.4,9,3.2,9
2015/11/24 5:10,1.6,8,1.6,8,3.8,8
2015/11/24 5:11,1.7,8,1.7,8,4.2,9
2015/11/24 5:12,1.8,9,1.8,9,2.9,8
2015/11/24 5:13,1.7,9,1.7,9,1.9,11
2015/11/24 5:14,1.7,9,1.7,9,2.7,8
2015/11/24 5:15,1.9,9,1.9,9,2.1,10
2015/11/24 5:16,1.8,9,1.9,9,2.2,8
2015/11/24 5:17,1.8,9,1.8,9,3,11
2015/11/24 5:18,1.8,9,1.8,9,2.5,5
2015/11/24 5:19,1.6,9,1.8,9,1.8,6
2015/11/24 5:20,1.5,9,1.6,9,2.1,15
2015/11/24 5:21,1.2,9,1.4,9,1.3,2
2015/11/24 5:22,1.2,9,1.2,9,1.6,16
2015/11/24 5:23,1.2,9,1.3,9,2.6,9
2015/11/24 5:24,1.2,9,1.2,9,3,8
2015/11/24 5:25,1.2,9,1.2,9,2.7,9
2015/11/24 5:26,1.2,9,1.2,9,3,9
2015/11/24 5:27,1.1,8,1.2,9,1.9,7
2015/11/24 5:28,1.1,8,1.2,9,3,8
2015/11/24 5:29,1.2,8,1.2,9,4.2,14
2015/11/24 5:30,1.3,8,1.3,9,3.6,15
2015/11/24 5:31,1.3,8,1.3,9,1.1,1
2015/11/24 5:32,1.2,8,1.3,9,1.9,14
2015/11/24 5:33,1.3,8,1.3,8,3.7,15
2015/11/24 5:34,1.3,7,1.3,8,3.2,8
2015/11/24 5:35,1.4,6,1.4,6,3.6,8
2015/11/24 5:36,1.3,7,1.4,6,3.1,9
2015/11/24 5:37,1.3,7,1.4,6,1.5,8
2015/11/24 5:38,1.4,7,1.4,6,2.7,8
2015/11/24 5:39,1.5,7,1.5,7,3.1,8
2015/11/24 5:40,1.4,7,1.5,7,2.1,8
2015/11/24 5:41,1.4,8,1.4,7,2.4,7
2015/11/24 5:42,1.6,8,1.6,8,3.1,7
2015/11/24 5:43,1.7,7,1.7,7,3.1,6
2015/11/24 5:44,1.8,7,1.8,7,3.5,7
2015/11/24 5:45,1.8,7,1.8,7,3.9,8
2015/11/24 5:46,1.8,7,1.8,7,1.8,8
2015/11/24 5:47,1.7,7,1.8,7,0.8,7
2015/11/24 5:48,1.6,7,1.7,7,0.5,1
2015/11/24 5:49,1.3,7,1.5,7,0.8,16
2015/11/24 5:50,1.3,7,1.3,7,1.5,8
2015/11/24 5:51,1.3,6,1.3,7,2.2,1
2015/11/24 5:52,1.2,6,1.3,7,2.6,1
2015/11/24 5:53,1.1,6,1.2,7,2.6,8
2015/11/24 5:54,0.9,4,1,7,1.8,1
2015/11/24 5:55,0.8,3,0.9,8,1.9,16
2015/11/24 5:56,0.9,3,0.9,7,2.2,7
2015/11/24 5:57,1,3,1,7,1.9,6
2015/11/24 5:58,1.1,4,1.1,7,3.6,7
2015/11/24 5:59,1.2,4,1.2,7,2.1,8
2015/11/24 6:00,1.3,4,1.3,7,2.1,5
2015/11/24 6:01,1.4,4,1.4,4,3.7,4
2015/11/24 6:02,1.4,5,1.4,4,3.5,5
2015/11/24 6:03,1.5,4,1.5,4,2.5,3
2015/11/24 6:04,1.5,5,1.5,4,2,5
2015/11/24 6:05,1.5,4,1.5,4,3.1,16
2015/11/24 6:06,1.4,4,1.5,4,1.3,2
2015/11/24 6:07,1.4,4,1.4,4,1.9,6
2015/11/24 6:08,1.4,4,1.4,4,2.6,4
2015/11/24 6:09,1.4,4,1.4,4,2.2,6
2015/11/24 6:10,1.3,4,1.4,4,1.1,10
2015/11/24 6:11,1.2,5,1.3,4,1.5,6
2015/11/24 6:12,1.2,5,1.2,4,2,5
2015/11/24 6:13,1.2,5,1.2,4,3,8
2015/11/24 6:14,1.2,5,1.2,5,3.6,6
2015/11/24 6:15,1.3,6,1.3,4,3,6
2015/11/24 6:16,1.4,6,1.4,4,2.6,6
2015/11/24 6:17,1.5,6,1.5,6,3,6
2015/11/24 6:18,1.5,6,1.5,6,2.1,6
2015/11/24 6:19,1.5,6,1.5,6,2.9,3
2015/11/24 6:20,1.8,6,1.8,6,4.1,6
2015/11/24 6:21,1.9,6,1.9,6,3.1,4
2015/11/24 6:22,1.9,5,1.9,6,3.2,4
2015/11/24 6:23,1.8,5,1.9,6,1.5,4
2015/11/24 6:24,1.9,5,1.9,6,2.6,7
2015/11/24 6:25,1.9,5,1.9,6,3.1,6
2015/11/24 6:26,2,5,2,5,3.7,4
2015/11/24 6:27,2,5,2,5,3.1,6
2015/11/24 6:28,2,5,2,5,2.5,4
2015/11/24 6:29,1.9,5,2,5,1.6,6
2015/11/24 6:30,1.8,5,1.9,5,2.1,6
2015/11/24 6:31,1.6,5,1.8,5,1,8
2015/11/24 6:32,1.4,5,1.6,5,0.5,1
2015/11/24 6:33,1.4,6,1.4,5,0.9,6
2015/11/24 6:34,1.3,5,1.4,5,1.1,6
2015/11/24 6:35,1.1,5,1.3,5,1.3,5
2015/11/24 6:36,0.9,5,1.1,5,1.9,5
2015/11/24 6:37,0.8,5,0.9,5,1.5,7
2015/11/24 6:38,0.8,5,0.8,5,1.5,3
2015/11/24 6:39,0.8,5,0.8,5,1.5,4
2015/11/24 6:40,0.7,5,0.8,5,1,5
2015/11/24 6:41,0.7,5,0.7,5,0.9,8
2015/11/24 6:42,0.8,5,0.8,5,2,8
2015/11/24 6:43,0.7,5,0.8,6,0.1,4
2015/11/24 6:44,0.7,5,0.7,5,1,4
2015/11/24 6:45,0.6,5,0.7,5,0.9,5
2015/11/24 6:46,0.6,5,0.6,5,1.4,3
2015/11/24 6:47,0.6,6,0.6,5,1.5,9
2015/11/24 6:48,0.7,7,0.7,5,2.2,9
2015/11/24 6:49,0.6,8,0.7,5,2.7,8
2015/11/24 6:50,0.6,8,0.6,5,1.1,9
2015/11/24 6:51,0.8,8,0.8,5,1.8,8
2015/11/24 6:52,0.8,8,0.8,5,4.9,13
2015/11/24 6:53,1.1,9,1.1,9,4.8,14
2015/11/24 6:54,1.2,9,1.2,9,3.5,3
2015/11/24 6:55,1.5,8,1.5,8,4.3,4
2015/11/24 6:56,1.5,7,1.5,8,3,6
2015/11/24 6:57,1.5,6,1.5,8,2.4,8
2015/11/24 6:58,1.6,4,1.6,4,3,5
2015/11/24 6:59,1.7,4,1.7,4,3.2,3
2015/11/24 7:00,1.9,3,1.9,3,3.9,1
2015/11/24 7:01,2,3,2,3,3.2,4
2015/11/24 7:02,2,3,2,3,2.9,4
2015/11/24 7:03,2.1,4,2.1,4,6.7,16
2015/11/24 7:04,2,4,2.1,4,4.5,2
2015/11/24 7:05,1.8,3,2,4,2.2,15
2015/11/24 7:06,2.2,3,2.2,3,8.2,15
2015/11/24 7:07,2.4,2,2.4,2,6.9,15
2015/11/24 7:08,2.8,1,2.8,1,7.9,1
2015/11/24 7:09,2.8,1,2.9,1,7.8,14
2015/11/24 7:10,2.9,1,2.9,1,4.8,5
2015/11/24 7:11,3.2,1,3.2,1,6,6
2015/11/24 7:12,3.2,1,3.2,1,5.1,4
2015/11/24 7:13,3,1,3.2,1,3.5,4
2015/11/24 7:14,3.2,2,3.2,1,4.4,3
2015/11/24 7:15,3.3,2,3.3,2,3.9,5
2015/11/24 7:16,3,3,3.3,2,1.8,7
2015/11/24 7:17,2.6,3,2.9,2,1.3,15
2015/11/24 7:18,2.1,4,2.5,2,0.9,4
2015/11/24 7:19,2,4,2.1,2,1.5,5
2015/11/24 7:20,1.6,4,1.9,2,1.1,5
2015/11/24 7:21,1.3,4,1.6,2,1.4,5
2015/11/24 7:22,1.2,4,1.3,2,1.4,6
2015/11/24 7:23,1.1,5,1.2,2,1.3,6
2015/11/24 7:24,0.9,5,1.1,2,2.5,6
2015/11/24 7:25,0.8,5,0.9,2,2.6,6
2015/11/24 7:26,0.9,5,0.9,3,1.3,5
2015/11/24 7:27,0.9,5,0.9,3,1.6,6
2015/11/24 7:28,1,5,1,4,1.5,4
2015/11/24 7:29,0.9,5,1,4,1.9,5
2015/11/24 7:30,1,5,1,4,2.1,6
2015/11/24 7:31,1,5,1,4,1.8,8
2015/11/24 7:32,1.1,6,1.1,4,3.2,8
2015/11/24 7:33,1.2,6,1.2,6,3.2,9
2015/11/24 7:34,1.1,6,1.2,6,2.4,9
2015/11/24 7:35,1.1,6,1.1,6,2.5,7
2015/11/24 7:36,1.1,7,1.1,6,2,10
2015/11/24 7:37,1.1,7,1.1,6,1.8,6
2015/11/24 7:38,1.2,7,1.2,6,1.8,6
2015/11/24 7:39,1.2,7,1.2,6,1.4,9
2015/11/24 7:40,1.1,7,1.2,6,2.7,8
2015/11/24 7:41,1.2,7,1.2,6,2.6,8
2015/11/24 7:42,1.2,7,1.2,6,3,6
2015/11/24 7:43,1.2,6,1.2,6,3,6
2015/11/24 7:44,1.2,6,1.2,7,1.4,4
2015/11/24 7:45,1.1,6,1.2,7,1,7
2015/11/24 7:46,1,6,1.1,7,0.5,9
2015/11/24 7:47,1,6,1,7,1.8,9
2015/11/24 7:48,1.1,7,1.1,7,2.4,11
2015/11/24 7:49,1.1,6,1.1,7,3.2,5
2015/11/24 7:50,1.2,7,1.2,7,3.1,16
2015/11/24 7:51,1.3,8,1.3,7,4.2,12
2015/11/24 7:52,1.4,9,1.4,8,4.2,10
2015/11/24 7:53,1.4,10,1.4,8,4.9,8
2015/11/24 7:54,1.4,10,1.4,8,2.5,5
2015/11/24 7:55,1.5,9,1.5,9,2.2,3
2015/11/24 7:56,1.8,8,1.8,8,4.8,4
2015/11/24 7:57,2,6,2,7,5.4,16
2015/11/24 7:58,2,1,2,7,3.9,14
2015/11/24 7:59,2.1,14,2.1,16,3.8,12
2015/11/24 8:00,2.3,13,2.3,13,6.1,14
2015/11/24 8:01,2.4,13,2.4,13,6,12
2015/11/24 8:02,2.4,14,2.4,13,4.9,11
2015/11/24 8:03,2.6,15,2.6,15,9.1,15
2015/11/24 8:04,3,14,3,14,9.1,15
2015/11/24 8:05,3.3,14,3.3,14,6.8,14
2015/11/24 8:06,3.3,14,3.3,14,6,14
2015/11/24 8:07,3.3,14,3.3,14,5.6,16
2015/11/24 8:08,3.7,14,3.7,14,8.7,15
2015/11/24 8:09,3.8,14,3.8,14,6,1
2015/11/24 8:10,3.9,15,3.9,15,8.7,14
2015/11/24 8:11,4.1,15,4.1,15,8.7,15
2015/11/24 8:12,4.2,15,4.2,15,5.1,2
2015/11/24 8:13,4.1,15,4.2,15,6,15
2015/11/24 8:14,4.2,15,4.2,15,9.9,1
2015/11/24 8:15,4.1,16,4.2,15,6.2,16
2015/11/24 8:16,4.1,16,4.1,15,6.8,15
2015/11/24 8:17,4.3,16,4.3,16,7.1,1
2015/11/24 8:18,4.2,16,4.3,16,8.3,16
2015/11/24 8:19,4.3,16,4.3,16,7.7,16
2015/11/24 8:20,4.2,16,4.4,16,8.5,16
2015/11/24 8:21,4.1,16,4.2,16,7.2,16
2015/11/24 8:22,4.3,16,4.3,16,10.1,1
2015/11/24 8:23,4.5,16,4.5,16,9.7,1
2015/11/24 8:24,4.3,16,4.4,16,6.4,16
2015/11/24 8:25,4.4,16,4.4,16,7.2,15
2015/11/24 8:26,4.5,16,4.5,16,8.9,16
2015/11/24 8:27,4.8,16,4.8,16,12.8,16
2015/11/24 8:28,4.9,16,4.9,16,9.2,16
2015/11/24 8:29,4.9,16,5,16,8.7,1
2015/11/24 8:30,4.8,16,4.9,16,6.2,15
2015/11/24 8:31,4.6,16,4.8,16,5.8,14
2015/11/24 8:32,4.5,16,4.6,16,9.4,15
2015/11/24 8:33,4.3,16,4.5,16,7,16
2015/11/24 8:34,4.6,16,4.6,16,10.1,16
2015/11/24 8:35,4.8,16,4.8,16,11.8,16
2015/11/24 8:36,4.7,16,4.8,16,6.8,16
2015/11/24 8:37,4.8,16,4.8,16,15.1,1
2015/11/24 8:38,4.7,16,4.9,16,10.3,15
2015/11/24 8:39,5,16,5,16,13.2,15
2015/11/24 8:40,5.4,16,5.5,16,12.1,16
2015/11/24 8:41,6,16,6,16,13.6,15
2015/11/24 8:42,6.2,16,6.2,16,12.3,15
2015/11/24 8:43,6.6,16,6.6,16,13.4,15
2015/11/24 8:44,6.7,16,6.7,16,12.7,15
2015/11/24 8:45,6.5,16,6.7,16,9.3,15
2015/11/24 8:46,7,16,7,16,12.4,15
2015/11/24 8:47,6.9,16,7.1,16,11.1,16
2015/11/24 8:48,6.7,16,6.8,16,8.4,15
2015/11/24 8:49,6.4,16,6.6,16,8.7,1
2015/11/24 8:50,6.3,16,6.4,16,11.6,15
2015/11/24 8:51,6.2,16,6.3,16,13,16
2015/11/24 8:52,6.2,16,6.3,16,10.7,16
2015/11/24 8:53,6,16,6.2,16,10.1,16
2015/11/24 8:54,5.7,16,6,16,7.2,15
2015/11/24 8:55,5.6,16,5.8,16,7.9,15
2015/11/24 8:56,5.3,16,5.6,16,11.6,16
2015/11/24 8:57,5.2,16,5.3,16,9.8,16
2015/11/24 8:58,5.3,16,5.3,16,8.2,16
2015/11/24 8:59,5.4,16,5.5,16,11.3,15
2015/11/24 9:00,5.2,16,5.4,16,8.1,15
2015/11/24 9:01,5.2,16,5.3,16,10.9,16
2015/11/24 9:02,5.3,16,5.3,16,10.6,15
2015/11/24 9:03,5.3,16,5.3,16,13.4,16
2015/11/24 9:04,5.5,16,5.5,16,9.4,16
2015/11/24 9:05,5.6,16,5.6,16,12.1,15
2015/11/24 9:06,5.8,16,5.9,16,13.9,15
2015/11/24 9:07,5.8,16,5.8,16,10.8,16
2015/11/24 9:08,5.7,16,5.7,16,9.8,16
2015/11/24 9:09,6,16,6,16,13.8,16
2015/11/24 9:10,6,16,6,16,10.2,16
2015/11/24 9:11,6,16,6,16,10,15
2015/11/24 9:12,6.1,16,6.1,16,11.4,14
2015/11/24 9:13,6,16,6.1,16,9.9,15
2015/11/24 9:14,6,16,6.1,16,10.3,14
2015/11/24 9:15,5.9,16,6,16,11,15
2015/11/24 9:16,5.9,16,6,16,14.4,14
2015/11/24 9:17,5.7,16,5.9,16,7.1,1
2015/11/24 9:18,6.2,16,6.2,16,11.6,15
2015/11/24 9:19,5.9,16,6.2,16,10,1
2015/11/24 9:20,6.3,16,6.3,16,15.6,16
2015/11/24 9:21,6.3,16,6.4,16,12.6,16
2015/11/24 9:22,6.2,16,6.4,16,15,14
2015/11/24 9:23,6.5,16,6.5,16,14.1,16
2015/11/24 9:24,6.4,16,6.5,16,12.6,1
2015/11/24 9:25,6.7,16,6.7,16,14.4,15
2015/11/24 9:26,6.8,16,6.8,16,12.4,16
2015/11/24 9:27,7,16,7,16,13.9,15
2015/11/24 9:28,7.2,15,7.3,16,15.2,15
2015/11/24 9:29,7.3,15,7.3,16,14.1,15
2015/11/24 9:30,7.2,15,7.4,15,14,16
2015/11/24 9:31,7.3,16,7.3,15,14.2,16
2015/11/24 9:32,7.4,15,7.4,15,9.3,16
2015/11/24 9:33,7.2,16,7.3,15,11.6,16
2015/11/24 9:34,7.4,16,7.4,15,15,15
2015/11/24 9:35,7.5,16,7.5,16,13.4,15
2015/11/24 9:36,7.1,16,7.5,16,10.5,15
2015/11/24 9:37,7.4,16,7.5,16,15.3,16
2015/11/24 9:38,7.2,16,7.4,16,14.2,14
2015/11/24 9:39,7.3,16,7.4,16,12.6,15
2015/11/24 9:40,7.3,16,7.3,16,12.7,15
2015/11/24 9:41,7.2,16,7.3,16,12.8,15
2015/11/24 9:42,7.1,16,7.2,16,11.7,16
2015/11/24 9:43,7.1,15,7.1,16,13,15
2015/11/24 9:44,7.3,15,7.3,16,14.1,15
2015/11/24 9:45,7.2,15,7.3,16,13.6,14
2015/11/24 9:46,7.5,15,7.5,16,12.7,16
2015/11/24 9:47,7.6,15,7.6,15,14.1,15
2015/11/24 9:48,7.8,15,7.8,15,16,14
2015/11/24 9:49,7.8,15,7.9,15,14.7,15
2015/11/24 9:50,7.8,15,7.9,15,13.4,16
2015/11/24 9:51,8.2,15,8.2,15,19,16
2015/11/24 9:52,8.5,15,8.5,15,13.8,16
2015/11/24 9:53,8.8,15,8.8,15,16.9,15
2015/11/24 9:54,8.7,15,8.8,15,10.5,16
2015/11/24 9:55,8.4,15,8.7,15,11.6,14
2015/11/24 9:56,8.2,15,8.4,15,10.2,15
2015/11/24 9:57,8,15,8.1,15,13.1,16
2015/11/24 9:58,7.8,15,7.9,15,12.1,15
2015/11/24 9:59,7.5,15,7.8,15,9.7,16
2015/11/24 10:00,7.5,15,7.6,15,9.7,14
2015/11/24 10:01,7.2,15,7.5,15,12.6,15
2015/11/24 10:02,6.8,15,7.1,15,9.2,15
2015/11/24 10:03,6.2,15,6.7,15,8.5,15
2015/11/24 10:04,6,15,6.2,15,7.8,16
2015/11/24 10:05,6.1,15,6.1,15,13.1,16
2015/11/24 10:06,6.3,15,6.3,15,10.2,13
2015/11/24 10:07,6.3,15,6.4,15,11.3,15
2015/11/24 10:08,6.1,15,6.2,15,12.6,15
2015/11/24 10:09,6.1,15,6.1,15,11.1,2
2015/11/24 10:10,5.8,15,6.1,15,8.5,16
2015/11/24 10:11,5.3,15,5.8,15,6.7,1
2015/11/24 10:12,5.1,15,5.4,15,4.2,16
2015/11/24 10:13,5,15,5.1,15,6.2,1
2015/11/24 10:14,5,15,5,15,8.4,14
2015/11/24 10:15,4.9,16,5.2,15,9,15
2015/11/24 10:16,4.6,16,4.8,15,6.2,16
2015/11/24 10:17,4.1,16,4.5,15,6.3,1
2015/11/24 10:18,3.8,16,4.1,15,7.5,1
2015/11/24 10:19,3.9,16,4,15,10.2,15
2015/11/24 10:20,4.1,16,4.1,15,10.7,16
2015/11/24 10:21,4.3,16,4.3,15,7.4,15
2015/11/24 10:22,4.6,16,4.6,16,9,1
2015/11/24 10:23,5.1,16,5.1,16,13.6,15
2015/11/24 10:24,5.4,16,5.4,16,13.3,15
2015/11/24 10:25,5.5,16,5.5,16,10.5,15
2015/11/24 10:26,5.8,15,5.8,15,11.4,15
2015/11/24 10:27,6.2,15,6.2,15,10.5,15
2015/11/24 10:28,6.5,15,6.5,15,12.3,16
2015/11/24 10:29,6.6,15,6.7,15,11.7,15
2015/11/24 10:30,6.4,15,6.5,15,8.4,16
2015/11/24 10:31,6.5,15,6.5,15,7.9,15
2015/11/24 10:32,6.3,15,6.5,15,8.3,16
2015/11/24 10:33,6,15,6.4,15,7.8,14
2015/11/24 10:34,5.7,15,5.9,15,9.2,1
2015/11/24 10:35,5.5,15,5.6,15,7,15
2015/11/24 10:36,5.3,15,5.5,15,9.3,15
2015/11/24 10:37,5.1,15,5.3,15,8.1,16
2015/11/24 10:38,4.6,15,5.1,15,7,15
2015/11/24 10:39,4.1,15,4.6,15,6,15
2015/11/24 10:40,3.9,15,4.1,15,7.7,16
2015/11/24 10:41,4.1,15,4.1,15,10.6,15
2015/11/24 10:42,4,15,4.1,15,6.9,15
2015/11/24 10:43,4.1,15,4.1,15,10.3,15
2015/11/24 10:44,4,15,4.1,15,7.7,16
2015/11/24 10:45,3.8,15,4,15,4.9,2
2015/11/24 10:46,3.6,15,3.7,15,5.7,15
2015/11/24 10:47,3.2,15,3.5,15,3,16
2015/11/24 10:48,3.3,15,3.3,15,7.6,2
2015/11/24 10:49,3.6,15,3.7,15,8.6,16
2015/11/24 10:50,3.8,15,3.8,15,8.9,16
2015/11/24 10:51,3.8,15,3.8,15,12.8,15
2015/11/24 10:52,3.8,15,3.8,15,6.9,15
2015/11/24 10:53,3.9,15,4,15,9,14
2015/11/24 10:54,4.2,15,4.2,15,12.7,16
2015/11/24 10:55,4.6,15,4.6,15,9.7,15
2015/11/24 10:56,4.6,15,4.6,15,7.7,14
2015/11/24 10:57,5.3,15,5.3,15,13.1,15
2015/11/24 10:58,5.7,15,5.7,15,12.5,14
2015/11/24 10:59,6,15,6,15,13.5,16
2015/11/24 11:00,6.6,15,6.6,15,15.1,15
2015/11/24 11:01,6.8,15,6.8,15,16.5,15
2015/11/24 11:02,7.2,15,7.2,15,12.6,15
2015/11/24 11:03,7.2,15,7.3,15,9.8,16